Location: Morlupo
(42.1333°N, 12.5000°E)
Time: 16:29:32
(UTC+00:00)

USA 238 - Pass Details

Date: 18 September 2020
Orbit: 1006 x 1206 km, 63.4° (Epoch: 15 October)

Event Time Altitude Azimuth Distance (km) Brightness Sun altitude
Rises 19:34:13 0° 324° (NW) 3,959 7.7 -25.8°
Reaches altitude 10° 19:36:51 10° 324° (NW) 3,024 6.9 -26.2°
Maximum altitude 19:44:09 89° 51° (NE) 1,176 3.8 -27.4°
Enters shadow 19:45:44 60° 144° (SE) 1,332 3.8 -27.7°
